This demonstration page uses our WeatherBlox Daily Observations layout. Learn more.

36.17497, -115.13722

Hourly Observations for May 21, 2018

Temp ( °F °C ) Dew Point ( °F °C ) Humidity (%) Winds ( mph kmh ) Pressure ( in mb ) Visibility ( mi km ) Precip ( " mm )
12:53 am 00:53 Clear 79 26.1 36 2.2 21 21 S 7 11 29.65 1004 10 16.09344 0 0
1:53 am 01:53 Clear 78 25.6 36 2.2 22 22 SE 7 11 29.65 1004 10 16.09344 0 0
2:53 am 02:53 Clear 76 24.4 36 2.2 23 23 SSE 9 15 29.65 1004 10 16.09344 0 0
3:53 am 03:53 Clear 75 23.9 37 2.8 25 25 S 9 15 29.65 1004 10 16.09344 0 0
4:53 am 04:53 Clear 73 22.8 38 3.3 28 28 S 9 15 29.65 1004 10 16.09344 0 0
5:53 am 05:53 Sunny 73 22.8 38 3.3 28 28 S 9 15 29.68 1005 10 16.09344 0 0
6:53 am 06:53 Mostly Sunny 73 22.8 38 3.3 28 28 ESE 6 9 29.68 1005 10 16.09344 0 0
7:53 am 07:53 Mostly Sunny 74 23.3 37 2.8 26 26 SE 3 6 29.71 1006 10 16.09344 0 0
8:53 am 08:53 Partly Cloudy 75 23.9 37 2.8 25 25 undefined N/A 29.74 1007 10 16.09344 0 0
9:53 am 09:53 Mostly Cloudy with Light Rain 73 22.8 42 5.6 33 33 ENE 3 6 29.74 1007 10 16.09344 0.01 0.254
10:53 am 10:53 Mostly Cloudy 73 22.8 44 6.7 35 35 E 9 15 29.74 1007 10 16.09344 0.001 0.001
11:53 am 11:53 Mostly Cloudy 76 24.4 43 6.1 31 31 NE 18 30 29.74 1007 10 16.09344 0.001 0.001
12:53 pm 12:53 Sunny 79 26.1 40 4.4 25 25 ENE 13 20 29.71 1006 10 16.09344 0 0
1:53 pm 13:53 Sunny 80 26.7 39 3.9 23 23 E 13 20 29.71 1006 10 16.09344 0 0
2:32 pm 14:32 Sunny 82 27.8 33 0.6 17 17 ESE 12 19 29.56 1001 10 16.09344 0 0
2:53 pm 14:53 Mostly Cloudy 82 27.8 32 0 16 16 ESE 16 26 29.68 1005 10 16.09344 0 0
3:53 pm 15:53 Mostly Cloudy 82 27.8 31 -0.6 16 16 ENE 12 19 29.68 1005 10 16.09344 0 0
4:29 pm 16:29 Sunny 84 28.9 24 -4.4 11 11 SE 17 28 29.56 1001 10 16.09344 0 0
4:53 pm 16:53 Sunny 83 28.3 24 -4.4 11 11 S 8 13 29.65 1004 10 16.09344 0 0
5:53 pm 17:53 Partly Cloudy 81 27.2 28 -2.2 14 14 ESE 10 17 29.68 1005 10 16.09344 0 0
6:53 pm 18:53 Cloudy 78 25.6 37 2.8 23 23 NW 12 19 29.68 1005 10 16.09344 0 0
7:53 pm 19:53 Clear 77 25 37 2.8 24 24 NNW 15 24 29.71 1006 10 16.09344 0 0
8:53 pm 20:53 Partly Cloudy 76 24.4 37 2.8 24 24 NNW 17 28 29.71 1006 10 16.09344 0 0
9:53 pm 21:53 Clear 75 23.9 37 2.8 25 25 N 13 20 29.71 1006 10 16.09344 0 0
10:53 pm 22:53 Clear 75 23.9 37 2.8 25 25 NNW 14 22 29.71 1006 10 16.09344 0 0
11:53 pm 23:53 Mostly Clear 75 23.9 37 2.8 25 25 NNW 13 20 29.71 1006 10 16.09344 0 0

Powered by AerisWeather